Wind_Speed
40 40 39 40 39 39 39 38 37 37 37 36 35 34 34 34 33 33 33 32 33 33 33 33 32 32 32 32 33 32 32 32 31 30 30 30 31 31 31 31 31 31 30
39 39 39 39 40 39 39 38 38 38 37 36 36 35 34 34 33 33 33 32 32 33 33 32 32 32 32 32 32 31 31 31 31 30 30 30 31 31 30 30 30 30 29
39 39 39 39 39 39 39 38 38 37 37 36 36 35 34 33 33 32 32 32 32 32 32 31 31 31 31 31 30 30 30 30 30 30 30 30 30 29 29 29 28 28 28
39 40 40 39 38 38 38 38 38 37 36 36 35 35 34 33 33 32 32 31 31 31 31 31 31 30 30 30 30 29 29 30 30 30 29 29 28 28 27 27 27 27 27
38 39 39 39 38 38 38 38 38 37 37 36 35 34 34 34 33 32 32 31 31 31 31 31 30 31 31 30 29 29 29 29 29 29 28 28 27 27 26 26 26 26 26
37 37 38 38 38 37 37 37 37 36 36 36 35 34 34 34 33 32 32 32 31 31 30 30 30 30 30 30 29 29 29 29 29 28 27 27 27 27 26 25 26 26 26
36 36 36 37 37 38 37 37 36 36 36 36 35 34 34 34 34 33 32 32 31 30 30 30 29 29 29 29 30 30 30 29 29 28 27 27 27 26 25 25 25 26 27
34 35 36 36 36 37 37 36 36 35 35 35 35 35 34 34 34 34 33 32 31 30 30 30 29 29 29 30 30 30 29 28 28 28 27 27 27 26 25 25 25 26 26
34 34 35 35 36 36 36 36 36 35 35 36 36 36 35 34 34 34 33 32 31 31 30 30 29 29 29 29 29 29 29 29 28 28 27 26 26 25 25 24 24 25 25
34 34 34 34 35 36 36 36 36 36 36 36 36 36 36 35 34 34 33 32 31 31 31 30 30 29 29 29 29 29 29 29 28 27 27 27 26 25 25 24 24 24 24
33 33 34 34 34 35 36 36 36 36 35 35 35 35 35 34 34 33 33 32 31 31 30 30 29 29 29 28 28 27 27 26 26 26 26 26 25 25 24 24 23 24 24
32 33 33 33 33 34 34 35 35 34 34 34 34 34 34 34 34 33 33 32 31 30 29 28 28 28 28 28 27 26 25 24 24 24 23 23 24 24 23 23 23 23 23
33 33 32 32 32 33 34 34 35 34 34 33 33 33 33 33 33 32 32 32 31 30 29 28 27 27 27 26 26 25 24 23 23 23 22 23 23 23 22 22 22 22 22
33 33 33 32 31 31 33 33 34 34 34 33 33 33 33 32 32 32 31 31 30 29 28 27 26 25 25 25 24 24 24 24 23 23 23 23 22 22 21 21 21 21 22
32 32 32 32 32 32 32 33 34 34 34 33 33 32 32 32 31 31 31 30 29 29 29 28 27 25 24 24 24 23 23 23 23 23 23 22 22 22 22 21 21 21 22
31 31 32 32 32 32 31 31 32 32 33 33 32 31 30 30 30 29 29 29 29 29 28 27 27 26 25 25 24 23 24 24 24 23 23 22 22 22 21 21 21 21 21
30 31 31 31 31 31 30 30 30 30 31 32 31 31 29 29 29 29 28 28 28 28 27 26 26 26 26 25 24 23 23 24 24 23 23 22 21 21 20 20 20 20 20
29 30 31 31 31 31 31 30 30 30 30 30 30 30 30 29 29 28 28 28 28 28 28 27 26 26 25 25 25 24 24 24 24 23 22 21 20 20 19 19 19 19 20
29 29 29 29 30 30 30 30 30 30 30 29 29 29 29 29 28 28 27 27 27 27 27 27 26 25 25 25 24 24 23 22 22 21 20 20 19 19 19 19 19 19 19
28 28 28 28 28 28 29 29 29 29 29 30 29 28 28 28 28 28 27 26 26 25 25 25 25 24 24 24 23 23 22 21 21 21 20 20 20 20 19 19 19 20 19
27 27 26 26 26 27 27 27 28 28 28 29 28 28 27 28 28 27 26 25 24 24 24 24 24 24 24 23 22 22 22 22 21 21 20 20 20 20 20 20 20 19 19
26 25 25 25 25 25 26 26 26 27 27 28 28 28 27 27 27 27 26 26 25 24 24 24 24 23 23 23 22 22 21 21 21 21 21 21 21 20 20 20 20 20 20
25 25 25 24 24 24 25 25 25 25 26 26 27 28 27 27 27 27 27 27 27 26 25 25 24 24 23 22 22 22 22 21 21 20 20 21 20 20 20 20 20 20 20
26 25 25 25 24 24 24 24 24 24 25 26 27 27 27 27 27 27 27 28 28 27 26 26 25 25 24 23 22 22 22 21 20 20 20 20 20 20 20 19 19 19 18
26 26 25 25 25 24 24 24 24 24 25 26 26 27 27 27 27 27 27 27 28 28 27 27 27 26 26 25 24 23 22 21 21 21 20 20 19 19 19 19 18 17 17
26 26 25 25 25 24 24 24 24 24 25 25 26 26 27 27 26 26 27 27 28 28 28 28 27 27 27 25 24 24 22 21 21 21 21 20 19 18 18 17 17 16 16
Wind_Direction
245 247 248 250 251 252 254 255 258 260 262 264 266 269 272 274 276 278 280 281 284 286 288 290 292 293 295 296 297 298 299 301 303 305 305 305 306 305 304 304 305 306 307
245 247 248 249 251 252 254 256 257 260 262 264 265 268 271 273 275 276 278 281 284 286 288 290 292 293 295 296 298 299 300 301 302 303 303 304 306 305 305 306 306 307 308
245 247 248 249 250 252 254 255 257 259 261 264 265 267 269 272 274 276 278 280 283 285 287 289 291 294 295 297 298 300 301 301 302 302 303 303 305 306 306 307 308 308 308
246 246 247 248 250 252 253 254 256 258 260 263 265 266 267 270 272 275 277 279 282 285 286 288 291 292 295 296 297 298 300 301 301 302 303 303 304 305 307 308 308 308 308
247 247 247 248 249 251 253 254 256 257 259 261 263 264 265 268 271 273 275 278 281 284 285 288 290 291 294 295 295 296 298 300 301 301 302 302 303 305 305 307 308 308 310
248 248 248 248 249 251 252 254 256 257 258 259 261 263 265 267 269 272 275 277 280 284 285 286 288 291 292 292 294 296 297 298 300 300 301 301 303 304 305 306 308 309 311
249 249 249 250 250 250 252 253 255 257 258 259 260 262 265 266 268 271 274 276 279 281 282 284 286 289 291 292 294 295 297 297 298 299 299 299 302 302 302 304 308 311 313
251 251 251 251 252 252 252 252 254 256 258 259 261 262 264 266 267 270 273 275 277 279 281 282 284 286 288 291 293 295 296 297 297 298 299 299 299 300 302 304 307 311 314
252 252 252 252 252 253 253 253 254 255 257 259 260 262 263 265 266 268 271 274 276 277 279 280 282 284 287 289 291 293 294 295 296 298 299 299 299 300 300 302 306 309 312
253 253 253 253 253 253 253 254 255 256 256 258 259 261 262 263 265 268 270 273 274 275 276 278 281 283 285 288 290 291 292 293 293 295 296 297 298 298 299 301 304 308 310
254 255 256 255 255 254 254 254 255 256 256 258 259 260 261 262 264 266 268 271 272 274 275 276 279 281 283 287 290 291 292 292 292 293 293 295 296 296 296 299 303 306 309
255 256 257 257 256 255 254 254 255 256 257 257 257 258 260 261 263 265 266 268 270 271 273 274 277 280 282 284 287 290 291 291 293 293 294 296 296 295 295 298 302 305 307
254 255 256 257 257 256 255 255 255 256 257 257 256 257 259 260 262 264 266 266 267 268 270 272 275 278 280 282 285 286 288 290 293 294 295 296 296 296 295 297 300 303 306
255 255 256 256 257 257 257 256 256 256 256 256 256 257 258 260 262 263 265 265 264 265 269 271 274 277 279 281 282 284 286 288 290 291 292 293 294 293 293 294 297 300 303
256 256 255 255 255 257 258 258 257 256 255 254 254 255 257 258 260 262 264 263 263 265 268 271 272 274 277 280 281 283 284 286 288 289 290 290 292 292 292 292 295 298 302
256 255 256 256 255 256 257 257 257 256 255 254 254 255 257 258 258 260 261 260 262 265 268 270 271 272 274 276 279 281 283 284 286 286 287 288 290 292 292 291 294 298 302
257 256 258 257 255 254 256 256 256 256 255 254 254 255 256 258 258 260 260 260 262 264 267 268 270 271 273 275 277 280 282 284 283 284 284 285 287 290 290 291 294 298 303
259 258 259 258 255 254 255 255 255 255 254 253 254 254 255 256 258 259 259 260 262 263 265 267 269 271 273 275 276 278 281 282 281 281 280 281 285 288 290 290 294 298 302
259 259 259 258 255 255 255 255 255 254 253 253 254 254 255 255 257 259 259 260 261 262 263 266 267 268 269 272 274 277 280 280 278 278 279 280 284 287 289 290 294 298 300
257 258 258 257 256 254 254 254 255 254 253 253 254 254 254 255 256 257 257 258 260 260 261 263 264 265 266 269 272 275 276 276 276 276 278 280 282 284 287 290 294 297 298
255 256 257 257 256 254 253 254 254 254 252 250 250 251 252 252 252 253 254 255 257 258 259 262 263 263 264 266 270 273 272 272 273 273 275 277 279 282 286 290 292 295 297
254 255 255 256 256 254 254 254 254 254 251 249 249 250 252 252 251 252 253 254 256 258 260 261 262 263 265 266 269 269 268 269 271 272 273 276 277 280 284 288 290 293 296
253 253 254 255 256 255 254 254 254 253 251 249 250 250 251 252 252 253 253 254 257 259 260 261 261 262 264 266 267 266 266 266 268 270 273 275 275 277 282 285 287 291 295
252 252 253 254 255 256 255 254 253 253 252 251 251 251 251 252 253 254 254 254 256 257 259 260 260 261 262 265 266 264 264 265 267 269 272 274 274 276 279 281 285 289 293
252 252 253 253 253 254 254 254 254 254 253 252 251 251 251 252 253 254 254 254 256 257 258 259 260 260 261 264 265 262 262 265 267 268 271 272 273 275 275 278 282 286 290
251 251 251 251 251 252 253 254 253 252 252 251 251 251 252 251 251 253 254 255 257 258 257 257 257 259 261 261 260 259 259 262 264 266 268 269 270 272 273 276 280 284 288
Height
5688 5691 5694 5696 5699 5701 5704 5706 5707 5709 5710 5711 5712 5712 5712 5712 5712 5711 5710 5708 5708 5706 5704 5702 5700 5698 5695 5692 5689 5686 5683 5680 5678 5676 5672 5668 5665 5661 5658 5655 5652 5648 5645
5679 5682 5684 5687 5689 5692 5694 5696 5698 5700 5701 5702 5703 5703 5704 5703 5703 5703 5702 5701 5700 5698 5696 5694 5692 5689 5687 5684 5681 5678 5676 5673 5670 5668 5665 5662 5658 5655 5652 5648 5645 5642 5638
5670 5672 5675 5677 5680 5682 5685 5687 5689 5690 5691 5692 5693 5694 5695 5695 5694 5694 5694 5693 5691 5690 5688 5686 5684 5682 5679 5676 5673 5671 5668 5666 5663 5661 5658 5655 5652 5648 5645 5642 5639 5636 5632
5660 5663 5665 5668 5670 5673 5675 5677 5679 5681 5682 5683 5684 5685 5686 5686 5686 5686 5685 5684 5683 5682 5680 5678 5676 5674 5671 5669 5666 5664 5661 5659 5656 5654 5651 5648 5645 5642 5639 5636 5634 5630 5627
5650 5653 5656 5658 5661 5663 5665 5667 5669 5671 5672 5674 5675 5676 5677 5677 5677 5677 5677 5676 5675 5673 5672 5670 5668 5666 5663 5661 5659 5657 5655 5652 5650 5647 5644 5642 5639 5637 5634 5631 5628 5625 5621
5641 5644 5646 5649 5651 5654 5656 5658 5660 5661 5663 5664 5665 5667 5667 5668 5669 5668 5668 5668 5667 5665 5664 5662 5661 5659 5656 5654 5652 5650 5648 5645 5643 5641 5638 5636 5633 5631 5628 5625 5622 5620 5617
5632 5635 5637 5639 5641 5644 5646 5648 5650 5652 5653 5655 5656 5657 5658 5659 5660 5660 5659 5659 5658 5657 5656 5654 5653 5651 5650 5648 5645 5643 5641 5638 5636 5634 5632 5630 5627 5625 5622 5620 5617 5614 5610
5623 5625 5627 5629 5632 5634 5636 5638 5640 5642 5644 5645 5647 5648 5649 5650 5650 5651 5651 5650 5650 5649 5648 5647 5646 5644 5642 5641 5639 5637 5634 5632 5630 5628 5626 5623 5621 5618 5616 5614 5612 5609 5605
5614 5616 5618 5620 5622 5624 5626 5628 5630 5632 5634 5635 5637 5638 5639 5640 5641 5641 5642 5642 5641 5641 5640 5639 5638 5636 5635 5633 5631 5629 5627 5625 5623 5621 5619 5617 5615 5612 5611 5609 5606 5604 5601
5606 5607 5609 5610 5612 5614 5616 5618 5620 5622 5624 5625 5627 5628 5629 5630 5631 5632 5633 5633 5633 5633 5632 5631 5630 5628 5627 5625 5624 5622 5620 5618 5616 5614 5612 5610 5609 5607 5605 5603 5601 5599 5596
5596 5598 5600 5601 5603 5604 5606 5608 5610 5612 5614 5616 5617 5619 5620 5621 5621 5622 5623 5624 5624 5623 5623 5623 5622 5620 5619 5617 5616 5614 5613 5611 5609 5608 5606 5604 5603 5601 5599 5598 5596 5593 5591
5588 5589 5591 5592 5593 5595 5597 5599 5601 5602 5604 5606 5607 5609 5610 5611 5612 5613 5614 5614 5614 5615 5615 5614 5613 5612 5611 5610 5608 5607 5606 5604 5603 5601 5600 5599 5597 5596 5594 5592 5590 5588 5586
5579 5580 5582 5583 5584 5585 5587 5589 5591 5593 5595 5596 5598 5599 5601 5602 5603 5604 5604 5605 5605 5606 5606 5606 5605 5604 5603 5602 5601 5600 5599 5598 5597 5596 5594 5593 5591 5590 5588 5586 5585 5583 5580
5569 5571 5572 5574 5575 5576 5578 5579 5581 5583 5585 5587 5588 5590 5591 5592 5593 5594 5595 5595 5596 5597 5597 5597 5597 5597 5596 5595 5594 5593 5592 5591 5590 5589 5588 5587 5585 5583 5582 5581 5579 5577 5575
5560 5561 5563 5564 5566 5567 5569 5570 5571 5573 5575 5577 5579 5580 5582 5583 5584 5585 5586 5587 5588 5589 5589 5589 5590 5590 5589 5588 5588 5587 5586 5585 5584 5583 5581 5580 5579 5577 5576 5574 5573 5571 5570
5550 5552 5553 5555 5556 5558 5559 5561 5562 5564 5565 5567 5569 5571 5573 5574 5575 5576 5577 5578 5579 5580 5581 5582 5582 5582 5582 5582 5581 5580 5579 5578 5577 5576 5575 5574 5573 5571 5569 5568 5567 5566 5564
5541 5543 5544 5545 5547 5548 5550 5552 5553 5555 5556 5558 5560 5562 5564 5565 5566 5567 5569 5570 5571 5572 5573 5574 5574 5575 5575 5574 5574 5573 5573 5572 5570 5569 5568 5567 5566 5565 5563 5563 5562 5561 5559
5532 5533 5535 5536 5538 5539 5541 5543 5544 5545 5547 5549 5551 5553 5555 5556 5558 5559 5561 5562 5564 5565 5566 5566 5567 5567 5567 5567 5567 5566 5565 5564 5563 5563 5562 5561 5560 5559 5558 5557 5557 5556 5554
5523 5524 5525 5527 5528 5530 5532 5533 5535 5537 5538 5540 5542 5544 5546 5548 5549 5551 5553 5554 5556 5557 5558 5558 5559 5559 5560 5560 5560 5559 5558 5557 5557 5556 5556 5555 5555 5554 5553 5552 5552 5550 5549
5514 5516 5517 5518 5519 5521 5523 5525 5526 5528 5530 5532 5534 5536 5537 5539 5541 5543 5545 5546 5548 5549 5550 5551 5551 5552 5552 5553 5552 5552 5552 5551 5551 5550 5550 5550 5549 5549 5548 5547 5546 5545 5544
5506 5507 5509 5510 5511 5513 5514 5516 5518 5519 5521 5523 5525 5527 5529 5531 5533 5535 5537 5539 5540 5541 5542 5543 5544 5544 5545 5545 5545 5545 5545 5545 5545 5544 5544 5544 5544 5543 5543 5542 5541 5540 5539
5498 5500 5501 5502 5504 5505 5506 5508 5509 5511 5512 5514 5517 5519 5521 5523 5525 5527 5529 5531 5533 5534 5535 5536 5537 5537 5538 5538 5538 5538 5538 5538 5538 5538 5538 5538 5538 5537 5537 5536 5536 5535 5534
5490 5492 5493 5495 5496 5497 5499 5500 5501 5502 5504 5506 5508 5511 5513 5515 5517 5519 5521 5523 5525 5526 5527 5528 5529 5530 5530 5531 5531 5531 5532 5532 5532 5532 5532 5532 5532 5532 5531 5531 5530 5529 5528
5482 5484 5486 5487 5488 5490 5491 5492 5493 5495 5496 5498 5500 5502 5505 5507 5509 5511 5513 5514 5516 5518 5519 5520 5521 5522 5523 5524 5524 5524 5525 5525 5525 5526 5526 5526 5526 5526 5525 5525 5525 5524 5523
5474 5476 5478 5479 5481 5482 5483 5485 5486 5487 5489 5490 5492 5494 5496 5498 5500 5502 5504 5506 5507 5509 5511 5512 5514 5515 5516 5516 5517 5518 5518 5519 5519 5519 5520 5520 5520 5520 5520 5519 5519 5519 5518
5466 5468 5469 5471 5473 5474 5476 5477 5478 5480 5481 5483 5485 5486 5488 5490 5492 5494 5496 5497 5499 5501 5502 5504 5505 5507 5508 5508 5509 5510 5511 5512 5512 5513 5513 5514 5514 5514 5514 5514 5514 5514 5513